QPF
0.00 0.00 0.00 0.00 0.00 0.00 0.00 0.01 0.00 0.00 0.00 0.00 0.00 0.00 0.00 0.00 0.00 0.00 0.00 0.00 0.00 0.00 0.00 0.00 0.00 0.00 0.00 0.00 0.01 0.01 0.02 0.02 0.03 0.05 0.05 0.06 0.08 0.10 0.11 0.09 0.09 0.11 0.13 0.13
0.00 0.00 0.00 0.00 0.00 0.00 0.00 0.00 0.00 0.00 0.00 0.00 0.00 0.01 0.00 0.00 0.00 0.00 0.00 0.00 0.00 0.00 0.00 0.00 0.00 0.00 0.00 0.00 0.00 0.01 0.02 0.02 0.03 0.04 0.04 0.05 0.08 0.09 0.10 0.11 0.14 0.16 0.16 0.14
0.00 0.00 0.00 0.00 0.00 0.00 0.00 0.00 0.00 0.00 0.00 0.00 0.01 0.03 0.02 0.01 0.00 0.00 0.00 0.00 0.00 0.00 0.00 0.00 0.00 0.00 0.00 0.00 0.01 0.01 0.02 0.02 0.03 0.04 0.05 0.07 0.08 0.08 0.11 0.14 0.16 0.15 0.12 0.11
0.00 0.00 0.00 0.00 0.00 0.00 0.00 0.00 0.00 0.00 0.00 0.00 0.00 0.02 0.04 0.01 0.01 0.02 0.00 0.00 0.00 0.00 0.00 0.00 0.00 0.00 0.00 0.01 0.01 0.01 0.02 0.03 0.03 0.04 0.05 0.07 0.07 0.07 0.08 0.10 0.10 0.09 0.07 0.08
0.00 0.00 0.00 0.00 0.00 0.00 0.00 0.00 0.00 0.00 0.00 0.01 0.01 0.02 0.02 0.01 0.02 0.01 0.00 0.00 0.00 0.00 0.00 0.00 0.00 0.00 0.00 0.00 0.01 0.02 0.04 0.04 0.04 0.04 0.05 0.08 0.08 0.07 0.07 0.09 0.10 0.08 0.08 0.08
0.00 0.00 0.00 0.00 0.00 0.00 0.00 0.00 0.00 0.00 0.00 0.01 0.01 0.02 0.02 0.01 0.01 0.00 0.00 0.00 0.00 0.00 0.01 0.01 0.01 0.01 0.01 0.02 0.02 0.02 0.04 0.07 0.07 0.07 0.07 0.07 0.09 0.08 0.08 0.10 0.12 0.09 0.08 0.08
0.00 0.00 0.00 0.00 0.00 0.00 0.00 0.00 0.00 0.00 0.00 0.01 0.00 0.01 0.01 0.01 0.00 0.00 0.00 0.00 0.00 0.00 0.00 0.01 0.02 0.03 0.03 0.02 0.02 0.02 0.03 0.04 0.04 0.05 0.05 0.06 0.07 0.08 0.07 0.10 0.12 0.10 0.07 0.07
0.00 0.00 0.00 0.00 0.00 0.00 0.00 0.00 0.00 0.00 0.00 0.01 0.00 0.01 0.01 0.00 0.00 0.00 0.00 0.00 0.00 0.00 0.00 0.01 0.02 0.05 0.08 0.05 0.02 0.02 0.02 0.03 0.03 0.03 0.03 0.04 0.05 0.06 0.07 0.09 0.11 0.12 0.09 0.07
0.00 0.00 0.00 0.00 0.00 0.00 0.00 0.00 0.00 0.00 0.00 0.00 0.02 0.02 0.01 0.00 0.00 0.00 0.00 0.00 0.00 0.00 0.00 0.00 0.01 0.04 0.06 0.05 0.03 0.02 0.02 0.03 0.03 0.03 0.03 0.03 0.03 0.03 0.05 0.06 0.07 0.09 0.08 0.07
0.00 0.00 0.00 0.00 0.00 0.00 0.00 0.00 0.00 0.00 0.00 0.00 0.01 0.02 0.02 0.01 0.00 0.00 0.00 0.00 0.00 0.00 0.00 0.01 0.02 0.04 0.02 0.04 0.06 0.07 0.05 0.04 0.04 0.04 0.03 0.02 0.02 0.02 0.03 0.05 0.06 0.08 0.09 0.09
0.00 0.00 0.00 0.00 0.00 0.00 0.00 0.00 0.00 0.00 0.00 0.00 0.00 0.01 0.02 0.04 0.01 0.00 0.00 0.00 0.00 0.01 0.01 0.01 0.02 0.05 0.03 0.02 0.02 0.06 0.09 0.06 0.04 0.04 0.03 0.03 0.03 0.03 0.03 0.04 0.06 0.06 0.07 0.09
0.00 0.00 0.00 0.00 0.00 0.00 0.00 0.00 0.00 0.00 0.00 0.00 0.00 0.00 0.01 0.03 0.02 0.01 0.00 0.00 0.00 0.00 0.01 0.00 0.01 0.04 0.06 0.03 0.02 0.02 0.03 0.03 0.03 0.03 0.03 0.03 0.02 0.02 0.02 0.02 0.04 0.06 0.06 0.06
0.00 0.00 0.00 0.00 0.00 0.00 0.00 0.00 0.00 0.00 0.00 0.00 0.00 0.00 0.01 0.03 0.03 0.01 0.00 0.00 0.00 0.00 0.00 0.00 0.01 0.01 0.01 0.02 0.01 0.01 0.01 0.01 0.01 0.02 0.02 0.02 0.03 0.02 0.02 0.02 0.02 0.03 0.04 0.04
0.00 0.00 0.00 0.00 0.00 0.00 0.00 0.00 0.00 0.00 0.00 0.00 0.00 0.01 0.04 0.03 0.01 0.00 0.00 0.00 0.00 0.00 0.00 0.00 0.00 0.00 0.00 0.01 0.01 0.01 0.01 0.00 0.01 0.01 0.02 0.02 0.03 0.03 0.03 0.03 0.03 0.03 0.03 0.03
0.00 0.00 0.00 0.00 0.00 0.00 0.00 0.00 0.00 0.00 0.00 0.00 0.00 0.00 0.02 0.03 0.02 0.01 0.00 0.00 0.00 0.00 0.00 0.01 0.01 0.01 0.00 0.01 0.01 0.01 0.01 0.01 0.01 0.01 0.02 0.02 0.02 0.03 0.03 0.04 0.04 0.03 0.03 0.04
0.00 0.00 0.00 0.00 0.00 0.00 0.00 0.00 0.00 0.00 0.00 0.00 0.00 0.00 0.00 0.03 0.02 0.00 0.00 0.00 0.00 0.00 0.00 0.01 0.01 0.01 0.01 0.00 0.01 0.02 0.02 0.02 0.02 0.02 0.03 0.03 0.02 0.02 0.02 0.03 0.04 0.03 0.03 0.04
0.00 0.00 0.00 0.00 0.00 0.00 0.00 0.00 0.00 0.00 0.00 0.00 0.00 0.00 0.00 0.00 0.00 0.00 0.00 0.00 0.00 0.00 0.00 0.01 0.01 0.01 0.01 0.01 0.01 0.02 0.04 0.03 0.03 0.03 0.03 0.03 0.02 0.02 0.02 0.02 0.02 0.03 0.03 0.03
0.00 0.00 0.00 0.00 0.00 0.00 0.00 0.00 0.00 0.00 0.00 0.00 0.00 0.00 0.00 0.00 0.00 0.00 0.00 0.00 0.00 0.00 0.00 0.00 0.01 0.01 0.01 0.02 0.01 0.01 0.04 0.04 0.03 0.03 0.03 0.03 0.02 0.02 0.02 0.03 0.03 0.03 0.03 0.03
0.00 0.00 0.00 0.00 0.00 0.00 0.00 0.00 0.00 0.00 0.00 0.00 0.00 0.00 0.01 0.01 0.00 0.00 0.00 0.00 0.00 0.00 0.00 0.00 0.00 0.01 0.02 0.02 0.01 0.01 0.02 0.04 0.04 0.04 0.04 0.03 0.03 0.03 0.03 0.03 0.03 0.02 0.02 0.03
0.00 0.00 0.00 0.00 0.00 0.00 0.00 0.00 0.00 0.01 0.01 0.01 0.00 0.00 0.00 0.00 0.01 0.02 0.01 0.00 0.02 0.01 0.00 0.00 0.00 0.02 0.02 0.02 0.02 0.01 0.01 0.02 0.03 0.04 0.05 0.05 0.04 0.04 0.04 0.04 0.04 0.03 0.04 0.04
0.00 0.00 0.00 0.00 0.00 0.00 0.00 0.00 0.00 0.01 0.02 0.01 0.01 0.01 0.02 0.01 0.01 0.02 0.03 0.04 0.03 0.01 0.00 0.00 0.01 0.02 0.03 0.02 0.02 0.02 0.02 0.02 0.03 0.04 0.04 0.05 0.05 0.04 0.05 0.06 0.05 0.05 0.05 0.05
0.00 0.00 0.00 0.00 0.00 0.01 0.00 0.00 0.01 0.01 0.01 0.01 0.01 0.01 0.01 0.01 0.01 0.01 0.03 0.06 0.05 0.02 0.01 0.01 0.02 0.02 0.02 0.02 0.02 0.02 0.02 0.03 0.04 0.04 0.04 0.04 0.04 0.04 0.04 0.05 0.06 0.06 0.06 0.05
0.00 0.00 0.00 0.01 0.00 0.00 0.01 0.01 0.00 0.00 0.01 0.01 0.01 0.01 0.01 0.01 0.01 0.01 0.02 0.02 0.02 0.02 0.02 0.03 0.03 0.02 0.02 0.02 0.02 0.03 0.04 0.05 0.06 0.06 0.06 0.06 0.05 0.05 0.05 0.05 0.05 0.04 0.05 0.05
0.01 0.00 0.01 0.01 0.00 0.00 0.00 0.01 0.00 0.00 0.01 0.01 0.01 0.01 0.00 0.01 0.00 0.01 0.02 0.02 0.01 0.02 0.03 0.02 0.02 0.02 0.02 0.02 0.03 0.04 0.05 0.05 0.04 0.08 0.09 0.10 0.08 0.08 0.06 0.05 0.04 0.04 0.04 0.04
0.01 0.01 0.02 0.02 0.01 0.01 0.01 0.00 0.00 0.00 0.01 0.01 0.01 0.00 0.01 0.01 0.01 0.01 0.01 0.01 0.01 0.02 0.02 0.01 0.02 0.02 0.02 0.02 0.03 0.04 0.04 0.03 0.03 0.04 0.07 0.09 0.10 0.10 0.10 0.10 0.09 0.08 0.07 0.06
0.01 0.01 0.02 0.02 0.02 0.01 0.01 0.01 0.01 0.01 0.01 0.01 0.01 0.01 0.01 0.01 0.01 0.01 0.02 0.01 0.01 0.03 0.04 0.04 0.04 0.03 0.03 0.02 0.03 0.03 0.03 0.03 0.04 0.04 0.04 0.04 0.05 0.06 0.08 0.12 0.15 0.13 0.11 0.11
MSLP
1004.69 1005.42 1006.00 1006.43 1006.74 1006.97 1007.14 1007.27 1007.37 1007.40 1007.36 1007.24 1007.05 1006.82 1006.63 1006.55 1006.64 1006.95 1007.49 1008.23 1009.11 1010.05 1010.94 1011.73 1012.35 1012.82 1013.14 1013.37 1013.56 1013.78 1014.04 1014.37 1014.74 1015.14 1015.52 1015.85 1016.12 1016.32 1016.46 1016.56 1016.64 1016.72 1016.79 1016.87
1005.13 1005.64 1006.00 1006.25 1006.45 1006.62 1006.82 1007.03 1007.22 1007.36 1007.40 1007.32 1007.12 1006.83 1006.54 1006.34 1006.32 1006.53 1007.01 1007.73 1008.62 1009.60 1010.56 1011.41 1012.10 1012.60 1012.94 1013.16 1013.34 1013.52 1013.76 1014.07 1014.44 1014.84 1015.22 1015.55 1015.80 1015.95 1016.03 1016.05 1016.05 1016.05 1016.07 1016.12
1005.29 1005.55 1005.69 1005.78 1005.90 1006.08 1006.36 1006.71 1007.07 1007.36 1007.52 1007.49 1007.27 1006.92 1006.50 1006.14 1005.95 1006.02 1006.39 1007.06 1007.95 1008.97 1010.01 1010.95 1011.72 1012.29 1012.67 1012.92 1013.09 1013.27 1013.49 1013.79 1014.15 1014.54 1014.92 1015.24 1015.47 1015.60 1015.62 1015.58 1015.51 1015.44 1015.40 1015.41
1005.21 1005.23 1005.19 1005.17 1005.27 1005.53 1005.95 1006.49 1007.06 1007.53 1007.82 1007.84 1007.59 1007.12 1006.53 1005.97 1005.56 1005.45 1005.67 1006.25 1007.11 1008.17 1009.28 1010.32 1011.20 1011.87 1012.33 1012.63 1012.83 1013.01 1013.22 1013.51 1013.86 1014.25 1014.63 1014.96 1015.19 1015.30 1015.29 1015.21 1015.08 1014.95 1014.86 1014.82
1004.97 1004.80 1004.64 1004.58 1004.73 1005.12 1005.74 1006.50 1007.28 1007.94 1008.34 1008.39 1008.09 1007.48 1006.68 1005.87 1005.22 1004.87 1004.91 1005.36 1006.17 1007.24 1008.41 1009.56 1010.55 1011.33 1011.89 1012.26 1012.51 1012.71 1012.93 1013.21 1013.56 1013.96 1014.35 1014.70 1014.94 1015.06 1015.06 1014.96 1014.80 1014.64 1014.50 1014.41
1004.65 1004.38 1004.16 1004.14 1004.39 1004.94 1005.77 1006.75 1007.74 1008.55 1009.04 1009.10 1008.71 1007.94 1006.93 1005.87 1004.95 1004.36 1004.20 1004.50 1005.23 1006.27 1007.48 1008.70 1009.80 1010.69 1011.35 1011.80 1012.10 1012.33 1012.57 1012.86 1013.22 1013.63 1014.05 1014.43 1014.71 1014.87 1014.89 1014.81 1014.65 1014.47 1014.30 1014.18
1004.34 1004.03 1003.84 1003.89 1004.28 1005.00 1006.01 1007.19 1008.33 1009.25 1009.79 1009.83 1009.36 1008.45 1007.24 1005.95 1004.80 1003.98 1003.62 1003.77 1004.39 1005.38 1006.59 1007.84 1009.00 1009.97 1010.70 1011.22 1011.57 1011.85 1012.11 1012.42 1012.80 1013.24 1013.70 1014.12 1014.46 1014.68 1014.76 1014.72 1014.59 1014.42 1014.24 1014.09
1004.07 1003.80 1003.68 1003.84 1004.35 1005.21 1006.36 1007.65 1008.88 1009.86 1010.41 1010.42 1009.88 1008.86 1007.52 1006.08 1004.76 1003.77 1003.25 1003.25 1003.75 1004.66 1005.81 1007.05 1008.22 1009.21 1009.98 1010.54 1010.94 1011.24 1011.54 1011.88 1012.29 1012.77 1013.27 1013.75 1014.16 1014.45 1014.60 1014.63 1014.55 1014.40 1014.23 1014.07
1003.84 1003.65 1003.64 1003.90 1004.51 1005.45 1006.66 1007.97 1009.21 1010.18 1010.70 1010.69 1010.12 1009.06 1007.68 1006.18 1004.79 1003.72 1003.10 1002.99 1003.38 1004.17 1005.23 1006.38 1007.50 1008.46 1009.23 1009.79 1010.21 1010.54 1010.86 1011.23 1011.68 1012.20 1012.75 1013.30 1013.77 1014.14 1014.37 1014.47 1014.45 1014.35 1014.21 1014.05
1003.64 1003.57 1003.66 1004.01 1004.66 1005.60 1006.76 1008.01 1009.16 1010.06 1010.53 1010.50 1009.95 1008.94 1007.63 1006.19 1004.85 1003.79 1003.15 1002.97 1003.26 1003.93 1004.85 1005.88 1006.88 1007.76 1008.47 1009.01 1009.42 1009.77 1010.11 1010.52 1011.00 1011.56 1012.16 1012.76 1013.30 1013.73 1014.04 1014.21 1014.26 1014.22 1014.12 1013.99
1003.44 1003.50 1003.69 1004.08 1004.70 1005.55 1006.58 1007.66 1008.66 1009.43 1009.84 1009.80 1009.32 1008.45 1007.30 1006.04 1004.87 1003.92 1003.33 1003.15 1003.35 1003.89 1004.66 1005.52 1006.37 1007.12 1007.75 1008.23 1008.63 1008.97 1009.34 1009.78 1010.29 1010.89 1011.52 1012.16 1012.75 1013.24 1013.60 1013.84 1013.95 1013.97 1013.93 1013.85
1003.25 1003.44 1003.70 1004.08 1004.62 1005.32 1006.13 1006.99 1007.77 1008.38 1008.70 1008.68 1008.30 1007.62 1006.71 1005.72 1004.79 1004.03 1003.56 1003.40 1003.56 1003.98 1004.57 1005.25 1005.93 1006.54 1007.06 1007.48 1007.85 1008.21 1008.60 1009.07 1009.62 1010.24 1010.90 1011.56 1012.17 1012.69 1013.10 1013.38 1013.56 1013.64 1013.66 1013.65
1003.07 1003.38 1003.69 1004.04 1004.46 1004.95 1005.52 1006.10 1006.64 1007.06 1007.29 1007.28 1007.03 1006.56 1005.94 1005.25 1004.60 1004.08 1003.75 1003.65 1003.77 1004.08 1004.52 1005.02 1005.52 1005.99 1006.41 1006.78 1007.13 1007.51 1007.94 1008.44 1009.02 1009.66 1010.34 1011.00 1011.62 1012.15 1012.58 1012.90 1013.13 1013.27 1013.37 1013.43
1002.94 1003.34 1003.68 1003.98 1004.27 1004.56 1004.86 1005.18 1005.46 1005.69 1005.82 1005.83 1005.70 1005.44 1005.09 1004.69 1004.32 1004.03 1003.85 1003.81 1003.90 1004.12 1004.41 1004.76 1005.11 1005.46 1005.80 1006.14 1006.50 1006.91 1007.39 1007.93 1008.55 1009.21 1009.89 1010.54 1011.15 1011.68 1012.11 1012.46 1012.73 1012.93 1013.09 1013.22
1002.87 1003.35 1003.71 1003.97 1004.13 1004.24 1004.31 1004.38 1004.44 1004.50 1004.54 1004.54 1004.50 1004.41 1004.29 1004.15 1004.01 1003.90 1003.85 1003.85 1003.92 1004.05 1004.23 1004.44 1004.68 1004.95 1005.24 1005.58 1005.98 1006.44 1006.97 1007.57 1008.23 1008.90 1009.58 1010.22 1010.81 1011.32 1011.75 1012.11 1012.41 1012.66 1012.87 1013.07
1002.87 1003.41 1003.79 1004.01 1004.08 1004.05 1003.95 1003.83 1003.72 1003.64 1003.59 1003.58 1003.60 1003.63 1003.67 1003.70 1003.72 1003.74 1003.76 1003.79 1003.82 1003.88 1003.97 1004.09 1004.25 1004.47 1004.76 1005.13 1005.57 1006.10 1006.71 1007.37 1008.06 1008.75 1009.42 1010.04 1010.60 1011.09 1011.52 1011.88 1012.19 1012.48 1012.73 1012.98
1002.93 1003.51 1003.90 1004.11 1004.14 1004.03 1003.83 1003.59 1003.36 1003.18 1003.07 1003.04 1003.08 1003.17 1003.29 1003.41 1003.52 1003.59 1003.64 1003.65 1003.64 1003.64 1003.65 1003.71 1003.84 1004.06 1004.37 1004.78 1005.30 1005.91 1006.58 1007.29 1008.02 1008.72 1009.39 1009.99 1010.53 1010.99 1011.40 1011.76 1012.08 1012.38 1012.65 1012.92
1003.03 1003.61 1004.01 1004.22 1004.25 1004.12 1003.89 1003.61 1003.33 1003.11 1002.96 1002.91 1002.94 1003.04 1003.17 1003.31 1003.42 1003.49 1003.51 1003.48 1003.43 1003.37 1003.35 1003.38 1003.50 1003.73 1004.09 1004.57 1005.15 1005.83 1006.56 1007.32 1008.07 1008.78 1009.43 1010.02 1010.52 1010.96 1011.35 1011.69 1012.01 1012.31 1012.59 1012.85
1003.11 1003.67 1004.07 1004.30 1004.36 1004.26 1004.06 1003.80 1003.53 1003.31 1003.16 1003.08 1003.09 1003.16 1003.25 1003.35 1003.41 1003.44 1003.40 1003.33 1003.23 1003.13 1003.08 1003.11 1003.25 1003.52 1003.92 1004.46 1005.10 1005.83 1006.61 1007.40 1008.16 1008.86 1009.49 1010.05 1010.52 1010.93 1011.29 1011.61 1011.91 1012.19 1012.45 1012.69
1003.15 1003.66 1004.05 1004.30 1004.40 1004.37 1004.23 1004.04 1003.83 1003.64 1003.50 1003.42 1003.39 1003.41 1003.44 1003.47 1003.46 1003.41 1003.32 1003.19 1003.05 1002.94 1002.88 1002.93 1003.09 1003.40 1003.85 1004.43 1005.11 1005.87 1006.67 1007.45 1008.20 1008.88 1009.48 1010.00 1010.44 1010.81 1011.14 1011.43 1011.70 1011.95 1012.18 1012.39
1003.14 1003.58 1003.94 1004.20 1004.35 1004.39 1004.34 1004.23 1004.10 1003.96 1003.85 1003.76 1003.71 1003.67 1003.63 1003.58 1003.50 1003.38 1003.23 1003.07 1002.91 1002.79 1002.75 1002.82 1003.01 1003.35 1003.83 1004.43 1005.13 1005.89 1006.68 1007.44 1008.15 1008.80 1009.35 1009.82 1010.22 1010.55 1010.82 1011.07 1011.30 1011.52 1011.72 1011.90
1003.08 1003.44 1003.76 1004.02 1004.20 1004.31 1004.34 1004.32 1004.27 1004.19 1004.10 1004.02 1003.94 1003.85 1003.75 1003.63 1003.49 1003.32 1003.13 1002.95 1002.79 1002.68 1002.67 1002.77 1002.99 1003.35 1003.84 1004.44 1005.12 1005.86 1006.60 1007.31 1007.97 1008.56 1009.06 1009.47 1009.81 1010.08 1010.31 1010.51 1010.70 1010.87 1011.04 1011.20
1002.99 1003.28 1003.56 1003.80 1004.01 1004.16 1004.26 1004.31 1004.32 1004.29 1004.23 1004.14 1004.04 1003.91 1003.76 1003.59 1003.40 1003.20 1003.00 1002.82 1002.68 1002.61 1002.62 1002.75 1003.00 1003.36 1003.84 1004.41 1005.05 1005.73 1006.41 1007.06 1007.65 1008.16 1008.59 1008.94 1009.22 1009.43 1009.60 1009.75 1009.89 1010.03 1010.17 1010.32
1002.90 1003.13 1003.37 1003.60 1003.82 1004.00 1004.15 1004.24 1004.29 1004.29 1004.24 1004.15 1004.02 1003.86 1003.68 1003.48 1003.27 1003.06 1002.87 1002.71 1002.61 1002.57 1002.62 1002.76 1003.01 1003.37 1003.81 1004.34 1004.91 1005.51 1006.11 1006.67 1007.18 1007.62 1007.98 1008.26 1008.47 1008.63 1008.74 1008.83 1008.92 1009.03 1009.15 1009.31
1002.83 1003.03 1003.24 1003.46 1003.69 1003.89 1004.05 1004.17 1004.24 1004.24 1004.19 1004.08 1003.94 1003.75 1003.55 1003.34 1003.13 1002.94 1002.77 1002.65 1002.58 1002.58 1002.65 1002.81 1003.05 1003.37 1003.76 1004.21 1004.70 1005.21 1005.71 1006.18 1006.61 1006.97 1007.26 1007.48 1007.63 1007.73 1007.79 1007.83 1007.88 1007.96 1008.07 1008.24
1002.79 1002.99 1003.20 1003.43 1003.66 1003.87 1004.04 1004.17 1004.23 1004.22 1004.15 1004.03 1003.86 1003.67 1003.46 1003.25 1003.06 1002.89 1002.77 1002.69 1002.65 1002.68 1002.76 1002.91 1003.11 1003.37 1003.69 1004.05 1004.43 1004.84 1005.24 1005.62 1005.96 1006.25 1006.48 1006.65 1006.75 1006.81 1006.83 1006.84 1006.86 1006.91 1007.02 1007.19
Thickness
5861 5849 5840 5851 5858 5858 5857 5850 5849 5863 5882 5872 5858 5853 5858 5863 5859 5850 5845 5841 5837 5835 5836 5835 5833 5829 5822 5816 5811 5808 5804 5802 5800 5797 5794 5792 5791 5792 5792 5792 5791 5789 5787 5785
5847 5842 5860 5870 5869 5864 5856 5846 5848 5862 5878 5867 5855 5853 5861 5862 5855 5853 5848 5843 5839 5835 5833 5831 5831 5828 5822 5816 5811 5808 5804 5802 5800 5798 5796 5794 5793 5793 5793 5793 5791 5789 5787 5786
5839 5857 5872 5866 5858 5853 5853 5849 5851 5852 5864 5866 5851 5839 5848 5857 5862 5858 5854 5850 5844 5838 5832 5830 5828 5825 5822 5816 5812 5810 5806 5803 5801 5800 5798 5795 5793 5791 5790 5789 5789 5789 5788 5786
5848 5866 5866 5858 5855 5854 5843 5862 5861 5856 5844 5840 5846 5814 5833 5847 5848 5849 5850 5849 5845 5842 5838 5832 5828 5825 5822 5819 5815 5811 5806 5803 5802 5800 5796 5792 5788 5785 5787 5788 5789 5789 5788 5786
5843 5859 5856 5849 5855 5860 5854 5867 5860 5855 5844 5835 5841 5824 5828 5845 5836 5843 5849 5850 5848 5846 5842 5836 5831 5827 5825 5822 5817 5811 5806 5803 5802 5800 5796 5792 5789 5789 5789 5789 5788 5787 5787 5786
5855 5871 5867 5861 5868 5868 5865 5858 5854 5852 5840 5814 5831 5822 5813 5837 5840 5845 5850 5851 5849 5848 5843 5837 5833 5828 5824 5822 5817 5812 5805 5801 5800 5798 5795 5792 5789 5788 5786 5785 5784 5784 5785 5785
5839 5855 5868 5869 5853 5860 5855 5833 5815 5810 5808 5810 5841 5827 5823 5848 5857 5855 5851 5850 5850 5848 5842 5835 5828 5822 5819 5817 5815 5811 5806 5800 5799 5796 5794 5792 5789 5787 5785 5784 5783 5782 5782 5781
5821 5827 5854 5861 5850 5842 5845 5837 5807 5793 5801 5814 5833 5821 5832 5856 5861 5861 5858 5854 5849 5845 5842 5836 5829 5823 5818 5815 5813 5810 5805 5800 5798 5795 5793 5791 5789 5787 5785 5784 5783 5782 5782 5782
5824 5827 5861 5865 5864 5853 5836 5834 5844 5826 5820 5810 5818 5828 5833 5848 5850 5853 5851 5847 5843 5840 5838 5833 5828 5823 5818 5813 5811 5808 5803 5800 5798 5795 5792 5790 5788 5786 5785 5784 5784 5783 5782 5782
5835 5821 5845 5859 5859 5855 5849 5843 5834 5817 5797 5793 5806 5811 5810 5820 5827 5838 5840 5837 5836 5835 5831 5827 5824 5820 5817 5813 5810 5806 5802 5799 5796 5794 5792 5789 5787 5785 5784 5782 5781 5780 5779 5779
5836 5818 5828 5841 5832 5828 5833 5831 5828 5822 5819 5800 5789 5798 5829 5825 5828 5830 5834 5834 5831 5829 5826 5823 5821 5819 5816 5812 5808 5804 5799 5797 5794 5792 5790 5788 5785 5784 5782 5780 5779 5778 5776 5775
5831 5819 5809 5824 5847 5851 5839 5833 5827 5806 5802 5810 5803 5800 5839 5835 5835 5832 5830 5829 5828 5826 5824 5821 5817 5813 5810 5807 5805 5801 5798 5795 5793 5791 5788 5786 5783 5781 5779 5777 5776 5775 5773 5771
5820 5807 5790 5799 5818 5832 5828 5831 5833 5828 5817 5807 5798 5798 5835 5834 5829 5828 5825 5823 5821 5819 5817 5815 5811 5808 5805 5802 5801 5799 5797 5794 5792 5789 5786 5783 5780 5778 5775 5774 5773 5771 5769 5767
5815 5800 5791 5785 5799 5811 5810 5818 5826 5819 5807 5802 5803 5802 5812 5816 5814 5816 5816 5816 5814 5810 5808 5805 5803 5802 5800 5799 5796 5793 5792 5791 5789 5786 5782 5779 5776 5774 5772 5771 5769 5767 5766 5763
5806 5789 5794 5803 5814 5816 5815 5816 5819 5813 5812 5804 5807 5806 5809 5814 5811 5810 5809 5808 5805 5802 5799 5796 5794 5793 5792 5791 5789 5788 5786 5785 5783 5780 5776 5774 5772 5770 5768 5766 5764 5762 5761 5760
5796 5783 5785 5787 5804 5810 5808 5814 5816 5814 5815 5812 5810 5804 5818 5815 5810 5805 5802 5800 5796 5794 5792 5790 5788 5785 5783 5783 5783 5781 5780 5778 5777 5773 5770 5769 5767 5764 5762 5760 5758 5756 5755 5753
5781 5773 5764 5767 5788 5793 5787 5806 5810 5810 5815 5809 5798 5801 5809 5800 5798 5797 5797 5794 5790 5788 5786 5783 5781 5779 5777 5777 5777 5774 5773 5772 5769 5766 5765 5763 5761 5758 5756 5755 5751 5749 5747 5746
5769 5762 5758 5759 5763 5748 5787 5819 5815 5806 5807 5810 5803 5801 5799 5794 5796 5796 5795 5790 5784 5782 5779 5777 5775 5773 5772 5771 5770 5768 5767 5764 5761 5759 5758 5756 5754 5751 5749 5747 5744 5743 5741 5739
5775 5758 5748 5746 5745 5758 5785 5802 5802 5791 5787 5800 5794 5790 5790 5791 5785 5781 5784 5781 5777 5775 5773 5772 5771 5768 5765 5763 5762 5759 5757 5755 5753 5751 5750 5748 5746 5744 5741 5739 5737 5736 5734 5732
5770 5760 5743 5739 5731 5736 5769 5794 5803 5789 5767 5785 5783 5776 5776 5773 5758 5758 5769 5769 5766 5765 5765 5763 5762 5760 5756 5754 5753 5749 5746 5744 5743 5743 5742 5741 5739 5736 5733 5731 5730 5729 5726 5724
5744 5740 5734 5731 5730 5747 5769 5781 5784 5752 5748 5770 5772 5767 5761 5757 5755 5756 5758 5756 5755 5753 5753 5753 5751 5749 5746 5746 5743 5738 5737 5735 5736 5736 5735 5733 5730 5728 5726 5724 5722 5719 5717 5715
5734 5729 5727 5727 5721 5727 5758 5761 5749 5745 5760 5762 5761 5758 5753 5751 5750 5747 5745 5743 5742 5740 5741 5741 5738 5737 5737 5736 5733 5729 5727 5728 5729 5727 5725 5724 5722 5720 5719 5715 5713 5710 5707 5705
5737 5736 5733 5728 5725 5738 5748 5747 5750 5754 5749 5750 5750 5748 5744 5739 5736 5735 5733 5732 5731 5730 5729 5729 5727 5725 5725 5725 5723 5719 5719 5720 5718 5717 5715 5713 5712 5709 5707 5705 5703 5700 5698 5695
5729 5734 5727 5721 5725 5732 5737 5739 5742 5742 5739 5740 5740 5738 5735 5729 5726 5724 5722 5721 5720 5720 5718 5718 5716 5713 5712 5713 5713 5711 5711 5710 5708 5705 5704 5703 5701 5698 5696 5694 5693 5690 5687 5685
5709 5712 5711 5708 5715 5718 5721 5724 5728 5729 5730 5729 5729 5728 5724 5720 5716 5714 5712 5710 5709 5709 5708 5707 5704 5703 5703 5704 5703 5703 5702 5700 5697 5696 5694 5693 5692 5690 5686 5683 5681 5680 5677 5675
5702 5699 5695 5694 5702 5702 5704 5712 5716 5715 5715 5716 5715 5714 5714 5711 5707 5705 5702 5701 5700 5698 5697 5696 5695 5695 5695 5695 5694 5694 5694 5692 5689 5687 5686 5685 5683 5681 5678 5676 5673 5670 5669 5667